EAGLET 1
1 43790U 18099AJ  24298.39041089  .00009400  00000-0  66263-3 0  9998
2 43790  97.5122 352.5948 0012020 248.2113 111.7835 15.05147755321690
ESEO
1 43792U 18099AL  24298.60408750  .00005205  00000-0  41388-3 0  9996
2 43792  97.4937 348.7413 0006518 206.2764 153.8131 15.00830185321608
CSIM
1 43793U 18099AM  24298.45480349  .00053913  00000-0  20827-2 0  9997
2 43793  97.5164   2.7771 0010042 215.5320 144.5250 15.26016798322417
JO-97
1 43803U 18099AX  24298.11610746  .00019368  00000-0  11326-2 0  9998
2 43803  97.5032 354.1620 0008408 212.8557 147.2152 15.11877753322146
Suomi 100
1 43804U 18099AY  24298.11677090  .00017177  00000-0  10390-2 0  9990
2 43804  97.5106 353.8958 0013979 215.4628 144.5673 15.10626312322113
ISAT
1 43879U 18111D   24298.24534783  .00027704  00000-0  14229-2 0  9994
2 43879  97.6047 203.6948 0008989 281.0537  78.9685 15.16428416318933
UWE-4
1 43880U 18111E   24298.27074498  .00023736  00000-0  12775-2 0  9996
2 43880  97.5982 203.3671 0012617 290.8536  69.1344 15.14772210318938
Sparrow
1 43881U 18111F   24298.49794419  .00034821  00000-0  17527-2 0  9990
2 43881  97.6156 206.1230 0007869 332.9001  27.1820 15.17094496319045
Prox-1
1 44339U 19036A   24298.18923277  .00019457  00000-0  30309-2 0  9999
2 44339  23.9976 112.8720 0008792   7.5235 352.5391 14.71411379284235
SONATE
1 44400U 19038Q   24298.51537978  .00057899  00000-0  12501-2 0  9992
2 44400  97.7160 299.2644 0013847  17.6802 342.4924 15.44241652293968
Taurus 1
1 44530U 19059C   24298.83161327  .00018197  00000-0  38593-2 0  9992
2 44530  98.5868  62.8323 0009470  17.4250 342.7271 14.59176572270647
Duchifat 3
1 44854U 19089C   24298.49760556  .00042482  00000-0  16986-2 0  9991
2 44854  36.9545 339.9962 0008683 123.8897 236.2679 15.24148582267957
TO-108
1 44881U 19093C   24298.49402323  .00003435  00000-0  41345-3 0  9994
2 44881  97.8175  12.7668 0012814 258.5013 101.4763 14.84487301262220
FloripaSat 1
1 44885U 19093G   24298.82777356  .00013972  00000-0  13380-2 0  9990
2 44885  97.8326  20.6021 0011173 242.6658 117.3425 14.93241776262695
RS-44
1 44909U 19096E   24298.58005373  .00000016  00000-0  96545-5 0  9998
2 44909  82.5266  18.7877 0218479 108.6436 253.8522 12.79735185225525
UPMSat 2
1 46276U 20061E   24298.43091953  .00041027  00000-0  95865-3 0  9993
2 46276  97.2807   3.6912 0001791  71.5017 288.6425 15.42063149230038
AmicalSat
1 46287U 20061R   24298.15005133  .00137352  00000-0  18886-2 0  9993
2 46287  97.3291   6.7517 0001890 144.9461 215.1919 15.56811026229470
SALSAT
1 46495U 20068K   24298.43372086  .00014442  00000-0  74222-3 0  9997
2 46495  97.8336 261.3639 0010959 223.7962 136.2402 15.16537794223879
UVSQ-SAT
1 47438U 21006AB  24298.11681880  .03670113  23594-5  18855-2 0  9991
2 47438  97.2775   3.3666 0006581 273.2868  86.7668 16.20433421208899
SOMP 2b
1 47445U 21006AJ  24298.13412813  .00389207  00000-0  20663-2 0  9999
2 47445  97.2927   0.0504 0002362 150.7124 209.4276 15.79458965208711
IDEASSat
1 47458U 21006AX  24298.14556217  .00208071  00000-0  18834-2 0  9997
2 47458  97.3081 359.8018 0003907 127.5977 232.5639 15.67413865208588
CubeSX-Sirius-HSE
1 47951U 21022V   24298.54762172  .00062444  00000-0  17621-2 0  9991
2 47951  97.4411 197.2593 0014161  48.7731 311.4730 15.36067974198356
CubeSX-HSE
1 47952U 21022W   24298.81274839  .00061448  00000-0  17180-2 0  9993
2 47952  97.4413 197.6529 0014258  47.1995 313.0445 15.36360626198401
KSU-Cubesat
1 47954U 21022Y   24298.71670410  .00087620  00000-0  20007-2 0  9991
2 47954  97.4418 199.6989 0012750  44.7995 315.4279 15.42462105198243
GRBAlpha
1 47959U 21022AD  24298.83601088  .00059998  00000-0  16756-2 0  9997
2 47959  97.4412 197.8437 0014179  47.3830 312.8607 15.36403135197239
Orbicraft-Zorkiy
1 47960U 21022AE  24298.86301831  .00073457  00000-0  17975-2 0  9995
2 47960  97.4455 199.7587 0013133  46.8909 313.3434 15.40427537198024
TUBIN
1 48900U 21059X   24298.71756865  .00042757  00000-0  11393-2 0  9992
2 48900  97.6607  87.9156 0005592 349.8579  10.2551 15.38035737184773
LEDSAT
1 49069U 21073D   24298.17315867  .00043706  00000-0  13544-2 0  9993
2 49069  97.4225   8.9947 0016564 183.6702 176.4421 15.33168761176151
CUTE
1 49263U 21088D   24298.13027107  .00048818  00000-0  17303-2 0  9994
2 49263  97.4810   3.8772 0010877 354.0688   6.0421 15.28879613169277
TeikyoSat 4
1 49396U 21102B   24298.56885625  .00005263  00000-0  36806-3 0  9999
2 49396  97.4450 339.0689 0012726 186.0837 174.0238 15.05639091162217
Z-Sat
1 49399U 21102E   24298.54455077  .00011536  00000-0  69733-3 0  9999
2 49399  97.4157 340.9802 0019747 168.7158 191.4519 15.10656717162502
KOSEN 1
1 49402U 21102H   24298.55540628  .00015923  00000-0  86027-3 0  9991
2 49402  97.4075 342.9659 0018486 150.0707 210.1586 15.14638301162709
HO-113
1 50466U 21131B   24298.51871427  .00001735  00000-0  56338-3 0  9993
2 50466  98.5232  22.9842 0005250 100.4032 259.7748 14.40129592148610
IRIS-A
1 51044U 22002BN  24298.13125492  .00054717  00000-0  12863-2 0  9998
2 51044  97.3680   4.8626 0003788 291.3223  68.7619 15.41807232154216
Planetum 1
1 52738U 22057G   24298.43451726  .00278272  00000-0  21745-2 0  9997
2 52738  97.5717  71.3802 0003143 315.0214  45.0793 15.70801061134613
Foresail-1
1 52766U 22057AL  24298.29750453  .00053469  00000-0  12395-2 0  9991
2 52766  97.5954  67.7745 0007406  30.1711 329.9960 15.42214027134276
SNUGLITE 2
1 52899U 22065F   24298.33787285  .00003744  00000-0  75905-3 0  9993
2 52899  98.1381  77.1984 0008623 108.3624 251.8515 14.61787845123121
IO-117
1 53106U 22080B   24281.96479996 -.00000003  00000-0  00000-0 0  9997
2 53106  70.1376 153.3488 0008243  81.8360 278.3235  6.42557544 52511
FO-118
1 54684U 22167C   24298.56431188  .00098451  00000-0  20293-2 0  9991
2 54684  97.6162  87.7739 0006485  38.7304 321.4408 15.45518019104162
SSS-2B
1 56184U 23054G   24298.52405713  .00191540  00000-0  20326-2 0  9995
2 56184  97.3450 199.0587 0008988  76.9014 283.3247 15.63416029 86160
SO-120
1 56992U 23084BU  24298.80306424  .00111618  00000-0  23135-2 0  9994
2 56992  97.5385  60.9369 0010123 277.9213  82.0886 15.45271998 76063
MRC-100
1 56993U 23084BV  24298.28169876  .00153709  00000-0  25208-2 0  9995
2 56993  97.5376  61.5020 0009909 274.4603  85.5517 15.51846471 76060
UmKA 1 (RS40S)
1 57172U 23091G   24298.52459891  .00013233  00000-0  80627-3 0  9993
2 57172  97.5954 349.3743 0016949  44.3363 315.9221 15.10384546 72995
CubeBel-2 (EU11S)
1 57175U 23091K   24298.51485987  .00018240  00000-0  10606-2 0  9992
2 57175  97.5952 349.5291 0015207  54.9470 305.3184 15.12028161 73002
VERONIKA
1 58261U 23174F   24298.84622528  .00052498  00000-0  17545-2 0  9993
2 58261  97.4464  13.0880 0010788 145.3111 214.8836 15.30775264 53479
KAFASAT
1 58317U 23174BP  24298.54317307  .00084765  00000-0  22800-2 0  9990
2 58317  97.4402  14.1503 0008959 124.2488 235.9606 15.37520756 53534
ENSO
1 58470U 23185J   24298.85369940  .00044329  00000-0  14585-2 0  9999
2 58470  97.4102   4.7315 0011124 175.1558 184.9793 15.31319758 49928
EIRSAT-1
1 58472U 23185L   24298.80868008  .00052556  00000-0  16412-2 0  9997
2 58472  97.4092   4.9121 0010574 176.0398 184.0930 15.32958309 49932
SO-121
1 58567U 23174CY  24298.45326297  .00776301  00000-0  46932-2 0  9991
2 58567  97.4284  17.1453 0003211 232.9934 127.1038 15.75460746 53721
SONATE-2
1 59112U 24043Q   24298.58788283  .00027489  00000-0  11330-2 0  9995
2 59112  97.4919  61.5632 0013529 199.4413 160.6310 15.23968051 35479
MO-122
1 60209U 24125G   24298.56665962  .00028254  00000-0  11590-2 0  9990
2 60209  97.3052 148.2580 0022719 227.7672 132.1638 15.23964201 17080
GRBBeta
1 60237U 24128C   24298.88822813  .00008746  00000-0  73406-3 0  9998
2 60237  61.9928 151.2704 0022411 355.6929   4.3963 14.98780964 16024
Curium One
1 60242U 24128H   24298.32753328  .00012542  00000-0  10442-2 0  9996
2 60242  61.9836 153.4124 0022368 343.7441  16.2928 14.98804026 15945
ROBUSTA-3A
1 60243U 24128J   24298.34284338  .00012279  00000-0  10301-2 0  9990
2 60243  61.9900 153.5702 0020565 339.8972  20.1304 14.98555406 15940
CatSat
1 60246U 24125J   24298.56482927  .00019943  00000-0  83388-3 0  9999
2 60246  97.2871 149.2675 0049689 180.4336 179.6867 15.22477216 15196
SR-0 DemoSAT
1 60455U 24147B   24298.85894591  .01126042  00000-0  59009-2 0  9993
2 60455  37.3681 217.7097 0028279 233.3208 126.4966 15.76837386 10797
Binar 4
1 60952U 98067WS  24298.50265497  .00831027  00000-0  35766-2 0  9995
2 60952  51.6264  29.7260 0009221   4.0257 356.0818 15.82262705  8777
CosmoGirlSat
1 60953U 98067WT  24298.27942091  .00235272  00000-0  21437-2 0  9992
2 60953  51.6328  32.7587 0003897  73.3893 286.7531 15.66610831  8717
Sakura
1 60954U 98067WU  24298.50001360  .00292693  00000-0  23842-2 0  9996
2 60954  51.6326  31.2304 0004068  51.9417 308.1946 15.69178226  8755
Binar 2
1 60956U 98067WW  24298.55267174  .00618960  00000-0  34266-2 0  9991
2 60956  51.6207  30.0445 0007587  14.4152 345.7063 15.77270055  8767
